CAPE
763 787 795 865 782 1194 1187 1276 1340 1406 1762 2166 2623 2600 2722 2513 2596 2667 2646 2677 2699 2735 2766 2618 2515 2425 2330 2064 2142 2178 2614 2538 2400 2080 1742 1707 3330 4421 4152 4130 3651 3384 3396 3368 3757 3652 3393 3134 3684 3314 2738 2764 2602 2338 2272 1184 1188 1053 1063 640 517 513 392 660 221 302 738 899 2794 527 1107 454 202 261 429 334 17 57 1 191 6 0 0 68 648
878 725 813 605 706 868 810 1349 1262 1520 1821 2083 2302 2561 2742 2454 2606 2837 2574 2867 2696 2584 2853 2800 2496 2097 2272 2178 1887 1716 2524 2611 2514 2402 2264 2042 3725 3772 4088 3896 3530 3594 3801 3845 3733 3062 2868 3111 3144 2793 2624 2334 2544 1437 642 640 594 316 1284 1129 336 368 820 342 612 102 613 550 986 1634 1082 486 988 567 184 328 0 0 2 1 12 0 0 0 0
249 682 574 605 617 705 1134 1299 1212 1248 1426 1508 2214 2727 3045 2882 2869 3181 2808 2704 2864 2654 2970 2910 2672 2411 2142 2070 1959 1869 2076 2344 2028 2156 2224 1865 2544 4062 3943 3596 3812 3651 3618 3688 3347 2946 2207 3044 2582 2833 2389 1976 1005 995 1090 1131 1476 862 826 719 759 805 258 652 822 381 264 656 748 250 381 784 1186 945 587 66 0 0 2 0 1 0 0 0 6
327 404 472 545 552 954 1004 1358 1401 1274 1590 1553 1947 2562 3054 3118 3149 3263 3265 2819 2727 2902 2940 2962 2874 2787 2745 2725 2298 2071 1948 2126 2562 2433 2342 2064 2119 3469 3248 3690 3038 2789 2656 2638 2868 2688 2638 2680 2366 2142 2114 1485 2287 1744 1163 1542 881 1057 759 630 998 213 220 525 733 686 372 457 648 587 603 477 1178 623 1026 344 1 0 0 0 0 0 0 4 25
522 403 687 492 679 590 1392 1431 1065 1278 1496 1513 1800 2191 2647 3116 3214 3260 3496 3162 2899 2917 3086 3176 3256 3118 3102 3049 2992 2714 2341 2415 2367 2378 2358 2505 2024 3527 3640 3016 2694 2776 2958 3057 2836 2678 2371 2445 2234 2162 1952 1570 1359 1254 512 320 652 565 592 934 448 725 542 434 365 549 705 492 508 572 685 642 671 762 166 836 91 26 1 0 0 0 0 0 90
932 716 574 474 682 989 1573 1606 1364 1309 1492 1592 1641 2045 2799 3168 3208 3182 3352 3590 3278 3042 3032 3420 3448 3269 3360 3160 2855 3072 2978 2828 2758 2652 2298 2462 1656 2206 3444 3134 2862 2890 2892 2872 2440 2316 2312 2326 2098 1853 1970 1391 1874 1425 1642 1186 504 462 666 654 677 851 592 467 516 268 276 420 628 743 115 629 700 670 139 1447 1237 21 2 4 11 0 0 52 418
778 505 524 544 604 826 1315 1781 1479 1274 1392 1648 1784 2141 2877 3402 3296 3200 3222 3604 3614 3326 3114 3423 3686 3624 3476 3120 2910 3032 3166 3170 3350 2812 2807 2842 2612 2450 2612 2801 2853 2590 2237 2437 2224 2277 2244 2317 2064 1896 1815 1814 1574 1147 375 410 149 292 742 733 1186 1201 489 688 426 484 548 1198 90 132 330 290 36 238 330 430 242 1107 759 0 0 0 0 0 0
420 1010 976 876 1098 736 1118 1719 1651 1244 1210 1440 1846 2316 3028 3635 3538 3366 3377 3580 3626 3714 3434 3505 3672 3666 3505 3266 3351 3416 2798 3476 3569 3684 3401 3210 2769 2473 2422 2444 2848 2605 2300 2507 2376 2416 2304 2173 2071 1774 1592 1203 1076 1054 658 331 1651 698 716 1024 1180 909 1368 982 716 847 1290 1018 382 425 68 1 12 45 10 17 219 180 741 112 7 0 1 0 0
517 555 799 800 1255 890 1250 1744 1474 1549 1464 1822 2089 2359 3099 3710 3810 3642 3685 3790 3834 4080 3876 3816 3891 3885 3758 3690 3916 3678 3344 3511 3469 3384 3297 2912 2651 2674 3028 2808 3000 2736 2692 2290 2506 2284 2386 2255 2124 1931 1460 1545 1480 740 281 235 822 1066 902 1161 831 929 1470 1256 1240 1124 336 350 140 712 549 643 334 138 97 330 225 10 2 78 231 22 2 23 0
467 427 923 887 1090 1167 1093 1213 1550 1733 2017 2208 2272 2500 3165 3699 3992 4003 3908 4012 4079 4217 4173 4218 4172 4093 4090 4009 4019 3664 3417 3386 2978 3274 3341 3356 2714 3135 3164 3304 2877 2800 2754 2494 2560 2366 2136 2289 2046 1661 1403 969 532 472 368 722 549 659 1113 555 994 998 1226 984 773 971 1248 690 978 300 946 318 222 11 42 168 87 9 50 42 10 96 855 26 227
584 749 896 1242 852 1370 1256 1192 1839 2181 2305 2535 2433 2690 2960 3546 4033 4138 4146 4110 4186 4232 4260 4450 4258 4281 4151 4141 3953 3642 3594 3629 3465 3381 3150 3318 2950 3287 3455 3422 2939 2635 2155 2704 2430 2158 2172 2098 1680 1558 1332 1472 354 490 395 471 444 736 452 886 858 896 575 819 393 256 900 632 531 773 1011 338 1215 481 126 9 79 96 187 108 32 15 20 198 1190
530 532 545 1246 1497 1564 1747 1364 1666 2390 2433 2614 2468 2973 3027 3438 3864 4162 4304 4282 4218 4276 4257 4338 4321 4292 4144 4116 4008 3750 3629 3352 3345 3204 2978 3198 2979 3378 3502 3349 3152 2819 2839 2486 2216 1574 2386 2138 1668 1456 1663 1130 766 382 605 392 285 263 942 889 736 527 1008 1099 710 985 274 843 356 158 211 190 577 171 264 996 438 497 246 226 145 306 400 215 260
557 1057 1028 1311 1552 1630 1822 2152 2182 2526 2577 2715 2539 2360 3089 3524 3740 4089 4398 4413 4313 4279 4163 4207 4364 4356 4069 3946 3856 3905 3972 3766 3612 3128 3244 3397 3297 3509 3516 3264 3150 2997 2915 2314 2016 2076 2426 2354 2071 1897 1695 1253 840 622 691 785 591 1168 960 747 919 761 684 670 719 318 142 527 483 60 160 84 285 1113 75 178 457 1206 1204 688 342 126 170 162 400
515 798 864 937 1840 1766 2017 2332 2493 2456 2643 2838 2817 2768 3157 3453 3755 4028 4460 4474 4362 4164 4192 4348 4481 4456 4060 3908 3969 3954 4171 4081 3896 3279 3285 3616 3596 3333 2894 2934 3056 2752 2390 2307 1784 1794 2082 2084 2034 1355 1625 1184 1192 1020 714 710 469 1273 862 682 632 952 861 768 739 526 494 275 60 20 46 89 70 126 499 520 141 424 613 371 544 584 206 114 230
665 863 918 1040 1813 1428 1403 2095 2643 2499 2498 2330 2643 3050 3326 3440 3968 4172 4484 4556 4487 4246 4297 4350 4478 4556 4206 3957 4059 4219 4237 4184 4038 3377 3394 3556 3258 3166 3191 2883 2938 2606 2566 2477 2206 2206 2100 1754 1608 1399 1634 1339 1077 975 1057 927 672 835 1720 562 712 623 549 798 606 389 317 298 131 85 206 177 198 873 69 30 184 34 244 300 430 367 193 205 240
267 482 853 1104 1555 2240 2191 2406 2902 2628 2525 2290 2513 3080 3333 3565 4136 4277 4502 4630 4529 4413 4379 4445 4501 4425 4393 4024 4061 4232 4102 4222 4191 3668 3790 3542 3353 3206 3345 3318 2954 2932 2963 2234 2409 2373 2130 1853 1553 1298 1523 1305 1047 1236 1087 879 892 820 970 851 536 591 627 564 702 585 182 238 272 548 1005 268 8 136 231 365 951 647 598 456 634 347 198 254 394
199 360 944 1318 1316 1664 1841 2141 2255 2361 2349 2270 2558 3054 3413 3540 4079 4428 4622 4606 4546 4356 4367 4475 4627 4420 4353 4155 4061 4121 4241 4023 4037 3774 2998 3369 3689 3460 3276 3212 3103 3066 2622 2336 1858 2163 2190 1782 1327 1101 1439 1284 1030 1199 982 1050 785 736 821 965 778 334 891 716 743 588 445 108 194 143 190 156 884 622 589 426 658 1258 824 1027 690 843 746 309 319
612 834 1604 1638 1335 1756 1866 1716 1722 2180 2150 2425 2784 3020 3336 3490 3887 4340 4572 4705 4565 4323 4221 4400 4648 4454 4269 4243 4145 4153 3872 3628 3607 3691 3204 3342 3708 3416 3275 2957 2926 2724 2381 1884 1858 1836 2121 1845 1660 1424 1240 1074 956 841 837 862 658 632 719 896 846 662 1170 1014 481 559 536 468 195 376 599 986 987 716 668 453 1986 769 1123 1366 1341 1442 1038 780 570
586 503 1557 1898 1584 1590 2054 1817 1829 1840 2437 2683 2886 2942 3104 3502 3498 3844 4246 4380 4438 3897 3864 4268 4596 4380 4216 4124 4277 4209 3954 3667 3525 3672 3574 3408 2887 3344 2896 2914 2755 2638 2521 2509 2211 1740 1838 1668 1730 1488 1300 1150 1204 875 820 702 869 657 738 866 819 867 800 1316 926 749 646 517 452 494 839 557 398 77 390 219 435 516 606 964 864 1118 1106 1044 918
341 240 576 1426 1486 1230 1244 1767 1960 2073 2667 2518 2521 2426 2400 2837 3286 3570 3947 4459 4599 4242 4196 4452 4498 4287 4112 4206 4362 4316 4238 3944 3602 3806 3678 3409 3132 3013 2890 2716 2762 2611 2626 2752 2167 1787 1668 1478 1491 1095 928 928 1042 759 828 721 945 914 670 544 579 906 906 699 844 532 522 687 679 499 339 306 828 774 806 822 721 578 494 605 683 704 698 762 948
236 284 310 570 870 870 1192 1532 1951 2006 2293 2351 2234 2077 1945 2328 2842 3136 3992 4285 4374 4247 4224 4304 4291 4289 4404 4503 4457 4488 4310 4007 3740 3793 3780 3552 3299 3103 2956 2529 2740 2647 2474 2564 2150 1877 1630 1463 1200 1102 775 778 895 854 790 798 763 884 947 688 643 786 658 699 750 721 416 580 788 644 758 900 1015 1029 918 764 654 971 1076 1062 845 558 717 930 792
379 207 299 409 695 944 1222 1530 2036 1920 2081 2296 2274 2185 1973 1981 2656 3154 3552 4024 4082 4322 4244 4156 4257 4424 4378 4491 4189 4297 4291 4044 3805 3772 3638 3632 3498 3314 3193 2893 2760 2779 2670 2399 2226 1945 1791 1589 1220 1002 866 974 1026 1048 877 840 794 824 850 684 714 1062 761 585 460 480 664 378 311 578 746 755 864 755 740 762 846 476 260 456 1332 753 860 830 927
339 417 153 69 658 1331 1655 1438 1410 1920 2291 2279 2372 2238 2065 2237 2695 2995 3358 3947 4102 4099 3898 4484 4571 4464 4335 4416 4442 4599 4454 4182 3724 3516 3028 3154 3550 3530 3364 3034 2692 2744 2752 2494 2292 1936 1846 1646 1094 920 1028 1153 1123 1067 955 931 817 893 780 684 659 892 914 686 670 648 621 600 532 606 610 741 744 689 764 735 514 594 556 661 416 532 709 631 770
489 315 178 882 1320 1632 1668 1250 1122 1338 2255 2786 2569 2443 2394 2430 2549 2790 3190 3701 3836 3744 3795 4556 4612 4486 4278 4440 4581 4713 4124 3857 3480 3178 2893 2817 2949 3297 3312 3182 2743 2509 2833 2678 2375 1920 1881 1590 1063 954 1080 1195 1210 1046 990 1007 968 922 809 744 649 687 645 634 573 578 623 640 588 587 534 575 758 756 945 847 698 677 664 688 627 673 855 887 960
702 922 936 952 1333 1510 1814 1871 1852 1827 2357 3025 3162 3023 2656 2570 2638 2881 3282 3596 3393 3270 3500 4195 4151 3944 3909 4400 4340 4430 4603 4298 3761 3325 3099 2903 3094 3221 3158 2988 2728 2416 2886 2794 2371 1924 1862 1552 1092 990 1048 1169 1210 1152 1117 903 1020 877 793 770 803 797 774 619 623 618 736 609 496 512 676 748 799 642 664 592 794 589 610 587 682 925 1073 1085 859
1350 1366 1105 1005 1146 1876 2113 2338 3139 3017 2870 3368 3462 3177 2742 2629 2501 2444 2450 2778 2892 2488 2957 3776 4184 4019 4272 4324 4060 4233 4500 4154 3952 3406 3172 3016 3075 3222 3363 3264 3016 2776 3105 2757 2374 1845 1703 1564 1169 1118 1066 1118 1202 1254 1238 937 888 828 789 781 892 1053 915 822 747 683 717 763 731 719 785 831 845 844 731 709 694 668 768 786 718 889 989 1014 1104
1957 1669 1295 1679 2331 2458 2934 3657 4186 3247 2804 3209 3432 3118 2792 2994 2714 2679 2539 2292 2475 2334 2540 3283 3896 4139 4298 4156 4188 4182 4455 4271 4202 3814 3406 3308 3106 3004 3105 3170 3058 2912 2838 2600 2398 1938 1625 1538 1208 1166 1111 1152 1281 1250 1216 1121 1011 951 835 822 830 900 834 803 712 627 532 586 597 706 811 830 816 792 739 744 807 692 624 605 793 792 864 1192 1050
3309 2631 3143 3029 4240 2872 3130 3872 4311 3466 2800 2915 3032 2869 2931 2946 2454 2039 1945 1986 2172 2229 2286 2930 3948 4168 4289 4386 4551 4244 4184 4467 4388 4226 3736 3404 3255 3019 3110 3521 3262 3144 2716 2570 2402 2105 1682 1480 1259 1188 1292 1290 1242 1210 1237 1229 1204 1099 867 781 790 842 728 674 635 618 470 354 460 508 430 718 708 804 759 818 791 780 751 636 888 1371 1238 824 1002
3113 3231 3756 3499 5187 5760 4107 3974 4381 3828 3036 2691 2725 2748 2833 2616 1771 1750 1566 1918 2006 2224 2308 2757 3742 4362 4365 4320 4642 4412 4196 4382 4437 4552 4102 3762 3530 3211 3111 3672 3636 3312 2814 2544 2393 1985 1534 1556 1396 1254 1464 1224 998 1084 1154 1251 1259 959 736 694 832 835 705 601 617 574 516 480 490 491 451 393 805 1140 908 808 649 561 680 968 1300 1283 1181 848 773
2958 3643 3819 4327 4860 6102 5996 5310 5105 4064 3414 2736 2699 2887 2772 2452 1892 1680 1526 1658 2133 2253 2427 2671 3718 4427 4606 4628 4848 4675 4521 4606 4628 4676 4370 3964 3612 3438 3190 3651 3703 3420 3072 2698 2490 2162 1618 1606 1568 1552 1493 1174 794 896 938 1094 956 757 580 557 724 776 733 620 676 612 510 611 600 436 394 479 808 1475 1236 1122 671 641 537 900 1469 1201 1054 970 768
2057 3742 3429 4070 4105 5526 5870 5734 5231 4590 4014 3154 3029 3109 3102 2230 1611 1228 1663 1765 2535 2589 2578 2600 3799 4623 4896 5026 5171 5188 5002 4914 4918 4720 4428 4134 3902 3692 3454 3643 3722 3448 3096 2859 2805 2055 1731 1704 1951 1483 902 782 1202 1023 1015 859 585 434 408 502 685 866 960 874 728 729 712 734 738 746 719 983 1884 1562 1782 1518 992 661 561 392 245 225 516 765 761
1126 3462 3063 3552 4074 4444 5211 5298 5048 4850 4551 3820 3766 3766 3431 2270 1574 1375 1265 1550 2586 2807 2738 2800 3868 5026 5276 5303 5416 5559 5644 5419 5206 4949 4665 4360 4221 4103 3858 3639 3428 3531 3275 2976 2848 2231 1700 1980 1989 1330 931 1007 1103 1213 1200 1075 824 587 410 469 724 969 1076 989 820 759 846 898 866 782 796 1203 1235 1278 1438 1492 1179 826 690 707 583 507 469 485 452
2134 3690 3326 3423 3162 3998 4568 4388 4089 4132 4367 4192 4303 4041 3762 3186 2494 1890 1702 1530 2272 3020 3296 3278 4306 5334 5577 5641 5782 5990 5997 5914 5630 5212 4876 4682 4638 4472 4324 4175 3894 3668 3517 3173 2837 2400 2193 2159 2009 1494 1132 1324 1370 1440 1433 1309 1130 804 599 415 406 838 897 836 802 908 936 1052 1178 1064 1224 1768 1291 1782 1779 1886 1963 1734 951 730 635 629 694 718 662
1311 3379 3858 3333 3458 3486 4428 4355 4283 4206 3702 3714 3907 3957 3983 3719 3366 3074 2525 2100 2166 3703 3919 3730 4834 5507 5897 6122 6177 6212 6112 5971 5782 5496 5133 4938 4802 4479 4152 4106 3721 3514 3332 2949 2664 2550 2424 2302 1924 1745 1421 1500 1502 1700 1704 1578 1088 771 640 468 961 1064 677 519 872 941 899 844 1215 2214 1680 1696 1816 1363 1610 1721 1743 1698 1654 1651 1495 1232 1192 1046 790
54 2835 3356 4156 4172 4536 5008 4872 4121 3824 3965 3909 4029 4034 4118 3900 3724 3785 3650 3387 3073 4598 4370 4366 5207 5840 6253 6371 6333 6110 5934 5880 5624 5351 5066 4949 4651 4500 4186 3699 3363 3101 3000 2765 2423 2297 2169 2091 1549 1570 1628 1570 1616 1627 1723 1712 854 632 506 488 500 826 1092 1014 846 546 380 575 2112 2010 2132 2152 1977 1834 1661 1672 1534 1536 1536 1681 1872 1639 1298 1042 838
126 105 1445 4802 4640 4782 4674 5025 4286 4504 3917 3584 3663 3560 3344 3267 3311 3690 3834 3940 4565 5484 4999 4996 5748 6185 6441 6311 6040 5898 5799 5511 5244 5024 4861 4697 4564 4512 4135 3828 3475 3256 2920 2901 2607 2146 2183 1739 1693 1662 1669 1766 1651 1722 1702 1724 1399 847 581 635 544 429 538 436 737 1023 950 1728 1838 2042 1844 2172 2292 1861 1665 1314 1601 1643 1462 1622 1652 1462 1195 993 820
92 285 2643 5151 4980 5084 4660 5591 4925 3779 3662 3455 3397 3431 3529 3480 3241 3348 3928 4225 5386 5600 5326 5452 6192 6481 6330 6056 5870 5717 5402 5089 4852 4580 4376 4252 4200 4220 4101 3732 3313 3128 2972 3060 2812 2333 1889 1786 1784 1863 1846 1754 1737 1694 1674 1714 1654 1401 875 755 610 503 413 332 449 898 995 1450 2075 2105 1855 2016 1962 1856 1628 1131 1161 1610 1342 1416 1521 1438 1236 908 650
0 32 1726 5558 5245 5142 5272 5362 4996 4304 3802 3804 3755 3925 4070 3962 3584 3918 4074 4190 6074 5615 5640 6054 6426 6416 6096 5856 5815 5662 5350 4932 4581 4259 4030 3786 3573 3633 3720 3606 3209 2658 2542 2508 2338 2392 2040 1824 1812 1862 1856 1806 1731 1673 1616 1543 1421 1266 994 820 632 549 556 389 434 784 991 1494 1999 2097 1823 1631 1709 1760 1493 1276 1168 939 1014 1070 1177 1213 929 673 602
0 0 154 5176 4940 4650 5338 5504 5041 4364 4006 4196 4071 4040 4095 4063 3943 3601 3755 4276 5803 5839 6108 6296 6224 6122 5953 5680 5505 5529 5230 4715 4416 4068 3626 3398 3148 3266 3073 3156 2869 2807 2445 2252 2244 1977 1836 1568 1336 1222 1296 1459 1622 1622 1528 1457 1320 1218 1063 915 752 691 541 334 532 773 1144 1888 1448 1439 1541 1679 1394 1458 1337 1173 994 745 881 922 1061 892 683 458 370
0 0 0 2077 4652 4652 5808 5364 5034 4668 4094 4532 4370 4373 4158 4088 4358 3832 3913 4528 5475 6129 6321 6121 5908 5986 5840 5468 5247 5237 5079 4676 4394 4047 3666 3577 3113 2698 2987 2671 2517 2515 2382 2091 2355 1833 1572 1278 1074 972 828 806 1113 2013 1488 1359 1244 1174 1112 1062 978 845 694 571 748 1033 768 702 808 710 720 379 420 814 957 714 528 359 643 949 760 524 333 296 40
0 0 35 3752 4696 5016 5482 4846 4903 4772 4145 4151 4194 4339 4182 4106 4412 4346 4149 4426 5480 6336 6362 6152 5992 5777 5611 5353 5172 5016 4947 4701 4230 3956 3418 3233 2958 2718 2560 2570 2250 2148 2434 2537 2092 1763 1579 1328 1024 830 726 693 889 1405 1327 1266 1126 1014 911 869 778 772 808 966 880 530 370 438 809 521 596 92 0 321 103 234 228 261 328 496 504 436 124 0 0
2934 5341 2916 4990 4350 4890 4814 4434 5136 4918 4198 4375 4412 4465 4478 4693 4779 4966 4958 4877 5971 6395 6364 6300 6002 5531 5172 5014 4734 4964 4777 4569 4378 3998 3649 3446 3074 2703 2581 2312 1990 2451 2436 2004 1749 1675 1466 1238 980 821 978 964 955 1078 1156 990 891 854 757 743 716 1416 841 658 385 457 514 476 350 1 3 404 269 0 0 119 248 242 348 341 29 0 0 0 0
4647 4764 4128 4000 4513 4722 4056 4007 4398 4072 3846 4495 4896 4996 4944 4978 5168 5435 5232 5785 6075 6258 6230 6020 5590 5231 4907 4772 4799 4679 4465 4362 4268 3996 3513 3256 2794 2535 2426 2426 2428 1990 1778 1646 1535 1426 1353 1148 1130 1523 1113 1008 1114 1030 932 896 812 798 678 684 662 636 541 384 215 302 333 550 15 2 356 558 416 323 314 404 309 206 127 27 0 0 0 0 0
3165 3794 3796 3351 4246 4061 3473 3387 3485 3988 4475 4676 5524 4862 5058 5235 5575 5541 5804 5914 6047 6060 5856 5440 4995 5000 4784 4516 4580 4522 4417 4226 3966 3746 3306 2992 2649 2723 2794 2496 1872 1630 1602 1575 1480 1336 1074 1038 1032 1322 983 1066 1576 1014 997 922 830 808 730 654 555 485 486 644 591 416 61 365 602 774 720 661 520 398 326 246 254 146 0 0 0 0 0 0 0
3055 3306 3663 3652 4021 3936 3430 4062 5144 5136 5363 5456 5218 5019 4999 5578 5831 5888 5824 5912 5773 5481 5087 4778 4607 4583 4577 4498 4416 4226 4088 3738 3578 3451 3118 2884 2842 2724 2341 2042 1689 1484 1434 1345 1365 1105 1030 1109 1230 1290 1401 1607 1048 814 784 759 741 711 656 556 472 434 285 82 48 549 694 479 722 528 430 378 365 254 226 190 55 0 0 0 0 0 0 0 0
1990 2640 3479 3734 3417 3700 4624 4825 5800 5970 6096 5900 5800 5724 5616 5817 5803 5650 5681 5470 5147 4849 4583 4515 4372 4285 4096 3919 3837 3689 3687 3364 3175 3160 2847 2663 2547 2188 2071 1931 1804 1668 1544 1403 1374 1092 1139 1162 1331 1290 1503 1239 905 852 742 699 669 600 540 480 350 201 4 0 0 0 296 324 368 558 520 360 273 214 0 0 0 0 0 0 0 0 0 0 0
2491 3875 3901 3142 2821 3619 4092 4906 5329 5557 5446 5337 5286 5202 5235 5328 5341 5180 4936 4843 4626 4492 4251 4198 4056 3792 3736 3634 3491 3323 3251 2940 2895 2724 2508 2492 2071 2019 1986 1924 1754 1503 1408 1282 1206 1350 1381 1282 1566 1640 1430 889 860 764 695 676 548 367 304 260 29 0 418 384 328 337 309 144 239 387 464 361 253 51 0 2 3 1 0 0 0 0 0 0 0
4339 4224 3843 4116 4265 4578 4941 5100 5269 5202 4899 4662 4599 4626 4566 4492 4472 4432 4344 4304 4121 4001 3930 3770 3471 3232 3152 3056 2962 2750 2608 2421 2443 2328 2259 2251 1954 1853 1765 1648 1452 1489 1410 1337 1292 1388 1493 1503 1318 1458 1140 896 860 786 684 582 528 306 6 0 0 0 0 108 298 224 99 0 50 76 84 0 0 0 0 0 0 1 0 0 0 0 0 0 9
3161 3033 2502 2638 3227 3597 3727 3847 3766 4095 4408 4499 4204 3921 3390 3660 3938 3958 3846 3581 3348 3266 3339 3150 2903 2780 2671 2699 2522 2478 2176 2066 2016 1974 1883 1866 1770 1836 1567 1428 1215 1260 1226 1393 1632 1700 1469 1210 1084 1271 1177 869 817 766 541 530 514 227 24 14 10 6 0 116 55 62 0 0 0 0 0 0 0 0 0 0 0 0 2 20 57 57 1 4 56
3449 3134 2675 2549 2772 3028 3245 3187 3120 3515 3702 3268 3243 3048 3179 3176 3302 3453 3435 3429 3360 3055 2761 2532 2402 2286 2046 1999 1887 1850 1910 1966 1794 1698 1742 1665 1611 1575 1374 1186 1036 1120 1129 1167 1216 1284 1145 1095 1096 1227 1328 947 881 881 514 217 434 467 398 63 0 0 0 0 0 0 2 0 0 0 0 4 28 63 110 65 42 43 48 17 38 27 8 3 0
2948 2342 2592 2511 2690 2373 2799 2792 2644 2493 2061 2230 2454 2554 2942 3027 3168 3166 3224 3465 3290 2938 2515 2186 2071 1906 1753 1823 1636 1700 1743 1649 1518 1490 1438 1484 1380 1280 1197 1048 999 981 983 1020 912 944 944 1322 1042 852 848 836 768 695 625 429 0 0 0 0 0 0 0 0 0 0 2 14 68 108 180 168 152 62 56 15 74 17 0 0 0 4 18 25 19
Wind_Speed
5 6 6 6 7 4 2 2 2 4 3 5 6 7 6 4 4 6 3 6 9 8 7 6 6 6 5 6 6 5 4 3 3 3 3 4 6 9 10 10 10 12 12 13 11 12 13 16 20 21 21 21 20 19 18 22 20 19 19 18 16 16 13 14 13 12 12 10 11 12 16 12 12 13 13 12 nan nan nan 16 nan nan nan nan 16
7 5 5 5 5 7 6 4 5 5 5 7 7 7 7 6 6 7 5 6 9 9 8 7 6 5 5 5 5 5 4 4 3 3 2 6 11 10 10 11 12 12 15 17 16 16 15 19 21 21 21 20 19 20 20 20 21 17 19 17 17 15 14 12 16 12 12 14 12 13 16 13 12 12 11 14 nan nan nan nan nan nan nan nan nan
4 6 6 4 8 8 6 6 7 7 9 8 8 8 8 6 6 7 8 7 8 10 8 6 6 6 6 4 4 3 4 4 4 4 4 6 10 15 14 14 15 14 14 17 19 22 20 23 23 21 20 21 19 21 21 23 20 20 19 17 14 17 15 14 17 13 13 11 16 15 14 15 13 11 10 nan nan nan nan nan nan nan nan nan nan
4 6 9 7 7 7 7 7 8 8 9 9 11 10 9 8 7 9 10 8 7 9 9 7 6 6 5 4 5 2 5 6 6 5 7 8 11 18 17 18 18 18 17 16 21 22 22 22 21 19 19 21 19 20 21 21 22 20 18 17 18 14 14 16 18 18 16 14 13 15 14 14 17 13 14 15 nan nan nan nan nan nan nan nan nan
5 5 8 8 6 7 7 8 9 10 11 11 12 12 10 12 11 11 11 11 8 9 10 8 7 6 5 4 5 5 5 7 9 9 10 11 14 19 20 22 20 20 21 19 21 21 19 19 21 19 20 20 20 20 19 19 20 20 20 19 15 15 13 16 18 19 20 18 17 15 15 15 16 13 16 15 nan nan nan nan nan nan nan nan nan
7 3 6 9 7 6 7 9 8 9 9 10 11 12 12 12 12 12 12 12 11 10 10 8 7 7 8 7 7 8 8 9 9 10 12 14 14 19 22 22 22 20 20 19 18 18 18 18 19 20 20 19 19 17 19 18 16 16 22 17 17 18 16 14 18 20 20 20 20 20 20 19 15 13 15 14 14 nan nan nan nan nan nan nan 16
11 6 5 9 8 7 8 10 9 9 8 10 10 11 12 11 11 12 12 12 13 12 11 9 8 8 8 9 9 10 10 11 12 11 13 15 16 16 21 22 21 19 19 16 17 18 17 18 18 18 19 19 18 18 15 16 18 15 21 19 19 20 19 16 16 19 19 20 nan 21 23 19 nan 16 18 13 16 13 14 nan nan nan nan nan nan
13 11 7 8 11 9 8 10 10 10 11 11 11 11 13 13 13 13 12 13 13 13 12 10 10 10 10 10 11 12 12 13 14 13 15 15 17 16 21 21 20 17 17 17 17 19 17 17 16 16 17 17 18 18 15 15 17 18 19 22 21 20 19 20 19 19 20 20 21 22 nan nan nan nan nan nan 16 15 15 13 nan nan nan nan nan
15 15 12 9 11 10 9 11 13 12 13 12 11 11 13 14 14 14 13 13 13 14 14 13 11 12 12 12 13 13 14 15 16 16 15 16 16 17 20 21 19 17 17 20 18 19 18 17 17 15 15 13 19 17 16 15 19 19 19 20 21 21 20 20 20 21 20 23 23 21 21 21 20 20 nan 18 19 nan nan nan 16 nan nan nan nan
18 18 18 15 14 12 9 11 14 13 13 13 12 12 13 14 15 15 14 13 14 15 15 15 13 14 14 14 15 16 16 17 16 17 17 18 16 17 19 21 19 17 17 20 18 19 17 18 17 16 17 16 20 17 17 17 20 20 21 21 20 21 21 22 22 22 23 20 23 25 22 21 20 nan nan 19 nan nan nan nan nan nan 17 nan 16
20 19 21 22 19 18 14 9 12 15 13 15 15 14 14 15 15 15 14 13 14 15 16 16 15 15 15 15 16 18 19 18 17 18 18 20 17 18 19 19 19 19 16 19 19 18 18 18 19 19 18 19 21 16 19 19 24 22 23 23 24 24 24 23 21 25 24 24 22 25 23 23 21 22 19 nan nan nan 19 18 nan nan nan 16 16
18 18 19 25 26 22 18 11 12 16 16 16 16 17 16 16 16 16 15 14 14 15 16 16 16 15 15 16 17 18 20 18 18 17 20 19 18 18 19 18 17 20 17 20 19 19 19 17 18 21 20 22 22 20 19 20 21 25 24 25 25 25 27 25 24 25 27 27 22 25 23 21 24 23 21 22 21 22 22 20 17 17 17 17 17
17 18 17 21 25 22 20 14 14 16 18 19 18 19 18 19 19 18 16 17 16 17 17 16 17 16 16 17 18 18 19 19 18 17 19 19 18 18 19 19 17 20 18 22 19 21 21 21 18 19 23 23 24 23 20 24 20 26 26 29 27 28 26 29 27 26 26 25 26 nan 23 nan 24 22 nan 22 22 24 24 22 20 19 17 17 21
17 16 17 15 19 20 18 16 15 16 20 21 21 21 20 21 22 20 19 20 19 18 19 18 18 18 17 18 19 19 18 18 18 18 19 19 19 17 18 19 19 20 20 19 21 21 24 23 21 21 24 24 24 25 25 23 26 23 29 29 30 31 31 31 30 28 27 27 nan nan nan nan nan 22 23 23 22 23 25 24 21 20 19 18 20
16 14 14 14 16 19 17 15 15 15 20 22 20 21 21 21 22 22 22 22 22 21 20 19 19 19 19 18 20 20 18 18 19 19 19 20 19 16 17 18 20 20 20 19 20 23 25 25 25 25 26 27 26 27 26 27 26 26 28 31 30 34 31 31 32 28 29 28 25 nan 23 20 22 23 nan nan 24 nan 25 25 24 21 20 20 20
15 11 11 12 14 17 17 15 14 13 17 18 19 20 20 20 21 22 22 23 22 22 20 20 19 19 19 20 20 21 19 19 19 20 19 20 20 17 16 19 20 21 20 21 19 24 26 27 28 28 28 29 29 28 28 28 29 29 29 31 30 34 35 34 30 30 29 28 26 25 25 22 nan 24 26 25 26 29 29 25 24 24 23 21 22
13 9 8 10 11 12 12 11 12 13 15 17 16 17 19 20 22 23 23 23 23 23 22 21 21 20 20 21 22 21 21 20 21 21 21 20 21 18 18 19 21 22 21 24 23 24 28 29 30 31 30 30 29 29 29 30 31 32 32 33 34 34 38 37 34 32 28 27 29 26 25 25 27 28 28 28 28 31 30 28 27 27 27 25 24
11 8 11 14 11 9 11 13 15 15 16 16 16 17 18 20 22 24 24 23 23 23 23 23 23 22 22 22 22 21 21 21 21 22 21 21 20 20 20 19 20 22 23 24 25 26 26 29 30 30 30 30 30 30 31 31 35 34 34 35 36 36 36 39 36 31 29 27 27 26 26 27 29 29 28 27 30 33 32 32 32 31 31 28 26
9 10 15 17 13 6 6 13 16 14 13 16 18 18 19 20 22 24 24 23 23 22 22 22 23 22 21 22 21 21 21 21 21 22 21 21 20 21 21 20 20 21 23 23 26 27 26 27 29 30 29 31 31 32 33 33 37 37 37 38 38 39 39 39 34 31 29 28 27 26 26 27 29 nan 27 28 29 32 31 32 32 33 32 30 27
15 19 16 16 14 7 7 8 10 11 12 16 20 21 25 24 23 22 23 22 22 21 21 20 21 20 21 21 21 21 22 22 21 22 22 21 19 21 21 22 22 22 23 24 25 26 27 29 30 31 31 33 34 34 36 36 38 40 40 41 42 40 40 36 28 25 26 29 30 28 26 27 29 29 28 28 30 29 29 30 31 33 31 29 29
25 24 17 16 15 10 6 6 4 4 7 12 18 23 24 24 25 25 23 25 24 22 20 19 19 20 21 22 22 22 23 22 21 21 22 20 19 20 21 19 21 22 24 24 25 25 26 27 30 31 32 34 36 36 38 38 39 40 41 43 43 39 35 30 25 23 25 28 30 30 28 29 31 31 30 30 28 28 28 30 31 33 32 31 31
30 23 20 20 19 15 12 13 13 5 7 14 17 21 25 26 25 25 24 23 25 22 19 19 19 19 21 22 23 23 22 21 20 21 21 21 19 20 21 19 21 23 24 24 25 25 26 28 30 31 32 35 36 37 40 39 40 40 41 43 38 30 27 25 25 26 28 29 29 30 30 30 31 30 31 30 30 30 28 27 32 33 33 32 33
32 26 28 nan 26 23 20 19 18 12 2 12 15 19 23 25 26 25 24 24 24 23 20 20 20 19 21 22 23 22 21 20 20 20 21 21 20 20 21 21 21 22 23 24 26 26 27 29 30 31 31 34 36 37 38 39 40 39 39 38 30 20 23 28 29 30 32 32 33 32 32 32 32 32 32 33 33 32 30 29 30 31 31 33 33
33 32 33 27 26 25 21 17 16 13 4 11 14 16 20 23 24 24 24 25 23 21 20 21 20 19 21 21 21 20 20 19 19 20 22 21 21 22 21 21 20 20 23 24 26 26 28 29 30 31 32 34 37 37 37 39 42 40 36 33 27 23 26 30 29 30 32 34 36 37 37 36 36 34 35 36 36 36 34 32 31 32 33 33 35
35 36 31 26 26 22 15 14 15 15 12 11 13 15 18 21 23 23 23 23 21 18 18 20 22 21 21 20 21 21 19 19 20 20 23 22 22 23 22 23 22 22 23 25 26 27 28 31 32 33 34 36 38 39 39 39 40 40 36 32 31 31 33 32 28 28 31 34 36 38 39 39 38 36 36 36 38 38 37 36 35 35 35 37 37
36 35 30 25 27 24 16 15 15 13 14 14 14 15 17 19 22 22 22 21 20 17 17 19 22 22 20 21 21 20 19 20 21 21 23 22 22 22 23 24 25 25 25 26 28 28 30 32 33 35 36 37 39 39 39 39 39 40 38 36 35 35 36 34 30 28 29 32 36 38 39 40 39 39 38 38 38 39 39 40 39 40 39 39 40
37 36 30 26 32 30 21 20 19 15 14 15 15 16 16 16 18 21 21 19 18 16 14 18 22 23 20 21 22 20 19 20 20 20 19 20 22 23 23 24 26 28 29 29 29 31 31 34 36 37 38 39 40 42 41 40 39 40 39 39 38 38 38 36 32 29 30 32 34 36 38 40 40 39 38 37 39 40 40 41 42 42 42 42 41
36 37 32 26 31 33 27 23 24 20 16 16 16 16 16 16 19 19 20 19 17 16 14 15 19 20 19 21 21 20 20 20 18 18 18 19 21 21 21 21 24 28 32 33 33 33 34 36 39 41 43 43 44 45 45 44 43 41 40 39 40 40 39 38 33 30 31 34 35 37 38 40 41 41 40 39 40 40 41 42 45 46 46 44 43
38 39 33 27 32 37 30 26 26 25 21 19 17 16 15 16 18 18 18 19 16 16 15 14 17 19 19 19 20 19 18 19 18 19 19 19 20 21 21 23 24 25 28 32 34 35 37 39 41 43 46 48 48 49 48 48 47 45 41 40 41 40 40 38 34 31 32 35 37 39 39 40 42 44 46 43 42 42 42 44 47 48 48 47 46
41 36 33 31 32 36 34 32 31 28 25 21 19 16 16 17 19 20 17 18 17 16 16 15 16 18 19 19 19 18 17 17 18 19 20 19 20 22 23 25 26 26 27 29 32 36 38 41 44 46 48 50 50 49 51 54 52 47 44 41 41 40 39 36 34 33 34 37 38 38 39 39 42 45 45 46 44 46 45 45 47 48 47 46 46
38 35 34 36 35 36 36 36 33 29 26 23 19 16 16 17 19 21 18 18 18 16 17 17 16 18 20 20 19 17 16 16 18 19 20 20 21 23 24 27 28 28 29 30 34 38 40 42 45 48 51 51 50 49 55 54 53 52 47 43 42 41 39 36 35 36 37 39 39 40 39 42 45 45 45 48 48 48 46 45 44 44 45 45 45
37 38 36 37 37 36 39 38 36 32 30 27 23 17 15 15 17 18 20 19 20 19 19 19 18 19 20 20 18 17 17 17 19 20 21 23 24 24 25 27 29 31 32 33 36 39 41 43 44 48 51 51 51 52 56 54 53 52 48 45 42 41 40 38 36 38 39 38 38 39 39 42 44 45 44 46 47 48 47 45 43 42 43 45 47
37 39 34 32 31 34 37 39 36 34 33 30 28 22 13 12 14 16 19 20 21 21 20 20 20 20 20 19 19 19 19 20 21 23 24 25 26 26 28 29 30 33 36 37 39 42 43 45 47 49 51 53 51 54 56 55 54 52 49 47 45 41 40 40 39 39 40 39 38 37 38 44 43 47 44 43 45 46 47 45 43 42 43 44 46
36 37 35 33 32 31 37 39 38 35 31 30 31 26 16 12 13 17 18 20 21 23 22 22 22 21 20 20 21 22 22 23 24 26 27 28 28 30 31 32 35 37 39 41 42 45 47 48 50 51 52 52 51 56 58 56 54 52 50 47 44 44 41 40 41 41 39 38 38 41 44 44 45 44 42 44 45 46 46 45 46 47 47 45 46
nan 41 37 40 35 31 33 39 37 34 34 33 33 29 23 16 14 16 18 20 21 25 22 22 23 22 22 23 24 25 25 26 26 28 29 30 31 32 33 35 37 39 41 43 45 47 49 50 52 53 52 52 51 62 60 58 54 52 50 47 43 41 39 38 41 41 40 38 40 42 45 45 44 44 43 44 45 44 44 44 44 45 46 47 46
37 36 39 41 42 35 31 33 36 38 37 34 32 29 23 16 13 17 19 21 24 26 25 24 25 24 24 25 26 26 27 27 29 30 31 33 34 34 35 37 39 41 43 45 47 47 49 51 52 53 53 54 53 63 61 58 55 53 53 46 42 39 37 37 37 38 38 41 42 43 46 46 43 45 43 42 42 43 43 43 44 44 45 45 42
nan 39 41 46 47 44 37 35 37 38 37 34 34 33 28 21 17 19 22 23 28 29 27 27 28 28 28 29 30 31 31 32 33 34 34 36 37 37 37 39 41 43 46 48 48 49 48 49 50 53 55 54 54 59 61 57 55 55 50 44 40 39 38 36 35 37 39 43 44 45 48 47 46 45 41 39 41 43 43 44 44 45 45 42 37
nan nan 46 54 55 50 44 38 37 37 36 36 37 36 34 29 23 23 25 27 30 30 29 30 30 31 32 33 34 35 36 35 35 36 38 38 38 37 38 41 43 44 46 48 49 48 47 47 49 53 55 55 53 57 59 56 54 52 48 43 40 40 38 38 37 38 41 44 46 49 49 49 48 44 41 41 42 45 45 45 44 43 43 40 37
nan nan 42 50 51 47 45 40 37 35 37 38 38 38 38 35 29 25 25 29 33 32 32 32 33 34 35 36 37 38 39 38 36 37 40 41 41 41 40 42 44 43 46 50 48 44 44 47 49 51 53 53 51 54 56 55 53 51 47 41 41 40 39 40 42 44 45 45 45 46 53 54 52 46 42 42 46 49 46 45 45 46 44 42 41
nan nan nan 43 47 46 45 42 37 35 38 38 39 41 41 39 35 30 28 31 36 36 35 35 36 38 37 38 38 41 42 41 42 41 41 43 44 45 45 46 46 46 49 50 48 42 45 47 50 49 49 49 48 50 51 54 54 52 50 44 42 41 41 42 46 47 46 40 43 50 56 61 48 41 46 49 52 52 48 47 47 47 46 46 nan
nan nan nan 38 46 48 47 43 39 38 40 40 41 44 44 41 40 35 30 32 37 39 38 39 40 40 40 40 41 42 44 44 45 44 45 46 47 49 50 52 52 52 52 49 44 43 47 47 48 47 45 48 46 48 50 53 53 52 50 46 43 43 43 45 49 46 42 45 50 54 53 nan nan 45 51 55 56 55 52 50 50 47 48 nan nan
38 41 32 36 42 50 50 45 43 42 45 45 47 49 47 44 41 38 36 38 40 42 42 43 44 43 43 43 44 45 45 46 47 47 47 49 50 52 53 56 57 58 56 49 46 45 46 45 45 44 43 45 46 49 50 49 53 52 51 49 44 44 46 45 47 46 48 50 51 nan nan 44 51 nan nan 60 60 59 55 51 nan nan nan nan nan
46 44 44 40 44 46 44 40 38 40 45 49 51 52 49 45 42 42 42 43 44 44 45 46 46 46 46 46 47 49 47 47 49 49 51 53 53 53 55 56 56 56 51 48 47 47 46 43 41 43 46 45 43 46 55 51 50 52 52 51 51 51 52 50 48 43 45 48 nan nan 46 57 60 60 61 61 61 61 56 nan nan nan nan nan nan
40 40 36 43 46 42 38 35 35 43 49 52 54 52 48 45 45 45 47 47 46 47 47 48 49 49 49 49 50 50 49 50 52 52 54 56 55 55 57 55 53 50 48 48 48 47 45 43 42 43 45 46 47 48 54 57 55 54 53 54 55 54 53 48 48 44 nan 44 46 49 56 62 63 63 63 62 60 57 nan nan nan nan nan nan nan
39 39 42 45 48 43 38 40 46 51 56 56 53 50 49 49 49 49 50 49 49 49 49 50 51 51 52 52 52 51 52 53 54 56 58 58 56 58 59 55 52 52 52 50 48 46 44 43 43 46 47 50 50 51 51 53 57 59 58 57 55 55 52 nan nan 43 46 46 52 59 65 64 64 64 63 60 nan nan nan nan nan nan nan nan nan
48 46 44 46 44 43 46 50 54 59 60 57 52 52 54 54 52 51 50 51 52 53 52 53 53 54 54 55 54 54 54 57 57 57 60 59 57 57 57 53 51 53 53 52 49 46 44 44 45 46 49 52 53 53 53 54 53 56 55 55 55 51 nan nan nan nan 56 57 60 63 65 64 63 61 nan nan nan nan nan nan nan nan nan nan nan
48 42 39 39 39 42 46 49 53 55 56 55 55 55 54 52 52 52 53 54 55 55 55 54 55 55 55 55 56 55 57 59 59 60 61 61 61 59 55 51 50 52 53 51 49 46 45 46 47 48 52 54 53 53 53 53 53 52 50 52 nan nan 54 54 54 53 55 56 58 58 57 57 56 nan nan nan nan nan nan nan nan nan nan nan nan
53 51 49 47 49 47 46 48 51 51 49 49 52 53 53 52 52 54 55 56 56 56 56 56 58 57 56 56 57 60 61 60 60 60 61 63 65 62 54 48 48 49 52 52 49 46 46 47 48 51 53 54 54 53 53 53 52 52 nan nan nan nan nan 51 53 54 nan nan nan nan nan nan nan nan nan nan nan nan nan nan nan nan nan nan nan
54 53 52 48 44 43 42 47 49 52 51 52 51 51 51 52 53 55 55 57 58 58 57 59 58 58 59 58 59 59 61 62 63 65 62 59 58 54 51 48 47 48 48 50 48 48 48 47 49 53 54 54 54 54 53 53 54 55 nan nan nan nan nan 52 nan nan nan nan nan nan nan nan nan nan nan nan nan nan nan nan nan nan nan nan nan
54 52 50 47 44 42 43 47 49 51 54 55 56 55 53 53 54 55 57 58 58 58 59 59 59 59 60 59 58 60 63 64 65 64 63 64 67 61 50 48 50 51 53 51 50 47 46 48 51 52 51 52 53 53 61 62 62 61 59 nan nan nan nan nan nan nan nan nan nan nan nan nan nan nan 49 nan nan nan nan nan nan nan nan nan nan
51 53 51 47 46 45 45 45 46 48 52 54 55 56 55 55 55 56 58 58 58 58 59 60 59 58 58 57 58 61 62 64 65 64 63 65 64 59 56 53 53 52 53 55 52 48 49 54 54 54 51 54 62 64 65 64 nan nan nan nan nan nan nan nan nan nan nan nan nan 50 49 48 48 nan nan nan nan nan nan nan nan nan nan nan nan
Wind_Direction
330 359 36 9 21 351 13 321 355 336 324 310 304 313 320 329 308 317 302 292 294 304 311 326 335 336 353 2 4 360 353 4 6 23 5 334 293 294 308 316 326 330 332 334 335 335 328 322 314 308 315 315 314 317 316 300 308 302 307 314 318 320 327 316 328 328 305 306 310 317 310 323 328 328 340 341 nan nan nan 320 nan nan nan nan 313
333 337 10 17 2 356 342 298 338 338 318 313 320 316 316 332 321 305 303 286 294 304 307 323 330 333 339 348 356 355 339 354 353 341 349 312 300 305 305 313 319 327 326 323 320 313 312 311 308 310 309 312 315 303 295 297 292 305 300 302 315 315 312 313 298 305 312 316 316 309 313 314 319 319 326 346 nan nan nan nan nan nan nan nan nan
311 326 345 13 359 0 322 313 320 339 327 326 310 310 313 320 303 291 294 291 286 300 304 317 322 331 328 326 346 319 329 327 333 318 308 303 309 306 309 313 313 313 313 310 315 313 325 316 311 313 315 306 298 305 308 304 307 296 300 301 301 311 315 309 300 303 303 312 305 303 310 315 303 305 320 nan nan nan nan nan nan nan nan nan nan
284 314 339 356 353 352 324 315 310 321 314 317 317 317 302 301 297 292 291 295 285 291 304 313 325 320 320 310 318 322 286 299 295 290 296 309 309 301 306 308 308 313 313 325 318 316 313 310 307 307 299 299 302 303 308 307 301 304 303 307 304 301 314 307 306 303 300 298 299 301 305 310 306 306 309 311 nan nan nan nan nan nan nan nan nan
277 335 322 333 341 354 322 313 326 335 329 324 318 317 301 311 303 300 291 298 290 287 299 301 305 308 300 285 274 283 263 279 290 299 303 305 309 302 309 310 315 315 318 321 310 310 310 308 307 307 301 302 307 306 301 308 310 311 309 300 306 305 289 308 304 304 302 299 299 300 297 300 291 293 307 303 nan nan nan nan nan nan nan nan nan
286 316 308 319 336 326 313 320 343 343 330 321 321 323 312 307 306 303 291 292 294 295 297 292 296 294 287 285 280 272 275 277 289 293 300 307 316 312 312 315 318 317 309 310 307 306 310 312 307 308 304 305 298 304 303 299 305 303 304 308 314 306 305 295 296 298 298 297 303 305 302 302 296 297 295 298 302 nan nan nan nan nan nan nan 325
307 316 305 321 318 331 323 316 340 343 322 310 316 323 323 313 313 306 297 289 291 292 299 287 286 282 284 281 276 277 277 279 279 290 298 302 308 314 313 317 311 311 310 309 307 306 311 310 313 311 313 309 305 297 306 306 310 307 306 312 295 294 299 296 295 297 290 297 nan 299 301 300 nan 290 288 295 299 299 303 nan nan nan nan nan nan
295 301 300 299 308 324 330 315 317 326 318 318 323 320 321 317 318 314 300 297 292 289 297 291 284 281 280 280 277 280 285 285 295 298 300 306 312 319 306 307 305 308 305 306 306 306 310 312 313 316 311 315 312 309 310 311 295 304 298 290 296 297 297 295 287 287 288 295 294 295 nan nan nan nan nan nan 302 303 309 312 nan nan nan nan nan
299 295 302 290 293 311 309 306 317 319 316 317 315 309 311 311 314 312 308 302 297 300 298 298 288 283 284 281 282 282 287 290 293 299 303 308 304 300 294 295 298 304 305 306 305 306 310 311 313 316 313 318 314 311 312 320 310 305 302 303 305 306 302 295 293 288 286 291 288 285 283 291 297 298 nan 297 299 nan nan nan 306 nan nan nan nan
296 301 296 293 284 294 302 302 310 316 307 301 302 299 300 301 309 313 311 302 299 303 301 302 298 287 286 288 291 288 287 289 294 299 305 299 300 294 289 292 298 304 303 305 306 309 314 313 311 320 318 328 311 320 321 314 307 312 317 319 316 314 305 309 308 303 293 286 291 292 291 285 286 nan nan 301 nan nan nan nan nan nan 282 nan 315
292 292 297 297 294 283 289 304 301 303 298 299 299 296 292 295 300 307 308 297 300 304 303 303 301 292 289 293 297 294 295 294 297 300 299 295 298 293 292 294 298 302 304 300 307 313 315 316 320 319 325 312 308 311 316 313 316 319 321 322 320 318 318 312 308 300 300 296 290 288 292 294 296 292 291 nan nan nan 302 300 nan nan nan 278 292
283 288 298 300 296 295 293 300 299 301 300 300 301 290 288 285 288 297 297 296 293 297 300 300 298 295 291 295 297 296 297 297 303 298 297 295 297 294 292 295 300 302 309 300 307 319 314 319 320 321 326 312 315 315 317 321 321 322 323 318 319 320 321 311 310 308 304 303 297 297 297 299 293 292 291 297 295 298 300 301 299 293 285 286 285
274 270 273 285 301 307 301 297 302 307 305 302 303 302 291 287 291 293 292 291 288 290 296 297 295 293 291 295 296 294 297 299 300 298 293 292 293 294 297 299 303 303 304 301 308 315 311 315 325 319 315 319 322 325 328 326 320 323 323 321 324 324 322 318 314 309 308 303 299 nan 296 nan 284 292 nan 284 285 292 297 300 302 291 290 286 288
279 281 294 297 303 312 301 293 307 319 319 309 305 301 293 290 294 296 292 289 287 288 292 294 294 290 291 292 292 292 295 299 298 297 292 290 291 296 300 302 305 306 306 303 306 313 312 318 321 319 316 319 322 325 329 326 321 321 322 321 324 321 322 321 320 319 312 303 nan nan nan nan nan 274 278 284 293 295 298 300 304 303 293 288 290
270 273 299 314 307 314 308 299 299 317 325 323 311 305 297 294 293 295 293 292 291 292 291 297 290 290 289 288 290 288 292 296 295 294 290 291 294 297 298 300 303 304 305 304 307 309 312 318 319 321 320 321 325 327 327 324 322 321 316 320 319 317 318 318 317 315 313 313 300 nan 278 286 293 292 nan nan 287 nan 292 295 294 296 294 287 283
290 287 307 312 306 308 306 304 295 311 327 327 323 312 306 299 294 295 294 292 291 291 291 293 289 285 287 290 290 289 287 291 292 290 288 292 293 298 299 297 301 303 303 308 311 312 316 318 319 323 324 324 325 326 327 325 322 322 320 318 319 316 318 318 316 312 310 306 307 298 290 286 nan 284 281 281 283 285 290 292 294 297 295 293 289
282 280 287 293 293 306 322 333 332 335 339 342 336 326 317 307 301 300 296 292 294 293 291 289 286 285 288 288 289 289 290 295 296 297 298 291 292 298 298 299 304 307 312 312 318 317 320 321 323 326 327 325 325 326 328 326 324 322 321 320 320 318 315 316 313 310 306 309 308 306 297 292 288 287 289 288 291 292 294 293 294 296 296 297 295
289 261 260 284 296 310 342 357 1 0 358 349 346 335 325 318 313 309 305 305 300 294 292 288 287 287 286 289 291 289 288 294 297 297 294 290 292 297 300 305 311 314 316 316 320 323 318 322 321 325 326 327 328 329 329 328 324 322 323 322 321 319 314 314 313 307 304 300 298 295 294 289 288 289 292 293 292 296 298 299 300 300 300 302 299
281 285 263 279 289 302 355 13 10 4 353 348 345 340 333 325 324 323 319 315 309 302 297 289 290 281 280 287 289 287 286 292 295 295 291 295 303 303 308 310 317 315 318 320 320 320 316 318 319 324 325 327 329 330 329 327 324 325 325 322 322 321 319 315 313 308 304 297 292 295 291 291 288 nan 287 286 290 292 296 300 301 300 300 301 299
301 300 277 279 297 324 12 14 12 2 342 344 350 352 352 341 332 328 324 316 314 312 304 299 295 284 280 280 282 282 286 292 296 295 296 301 308 309 313 318 319 316 320 322 321 320 319 320 321 327 329 328 329 331 329 327 326 328 326 324 324 324 319 319 317 307 300 300 301 300 296 295 293 293 293 293 290 293 296 301 301 298 294 294 294
307 304 275 276 292 304 297 287 327 344 331 349 356 359 356 347 343 338 329 329 328 322 314 303 295 288 286 289 289 289 295 296 301 299 299 306 311 311 315 318 314 319 321 321 322 325 325 324 327 329 330 329 329 330 328 326 327 329 327 326 326 325 319 320 319 309 301 296 297 298 298 296 297 298 298 296 294 295 300 305 303 297 297 297 297
304 306 290 276 272 280 288 278 281 292 21 12 358 353 355 353 346 339 334 334 332 326 317 307 300 296 299 298 299 296 299 298 304 301 303 310 315 313 316 319 323 323 322 326 326 329 328 327 329 329 330 329 329 330 328 327 329 331 330 329 331 327 324 325 321 314 309 304 299 297 296 297 298 299 299 298 299 302 302 302 297 296 296 296 296
295 302 295 nan 264 260 267 274 283 288 25 19 359 352 351 350 346 339 335 337 334 332 322 307 308 306 308 305 305 304 303 307 311 306 319 322 320 320 322 327 326 325 328 333 333 334 331 331 333 332 332 331 331 331 328 328 330 332 333 335 337 334 330 330 324 319 318 314 311 307 306 304 302 304 303 300 299 299 296 293 291 291 293 294 295
294 293 286 277 272 267 258 265 279 284 322 3 360 349 345 346 348 341 337 334 333 332 327 317 315 317 316 313 311 308 318 319 322 317 325 329 329 330 329 330 331 330 335 339 339 338 334 335 335 334 335 332 332 332 331 330 330 331 332 334 335 332 328 327 324 320 320 319 319 316 313 311 307 305 301 299 298 296 297 298 298 299 299 298 296
276 279 280 279 275 271 266 276 293 315 338 333 341 343 342 344 348 343 332 329 328 330 332 325 323 327 326 318 318 317 321 324 327 325 331 334 335 334 331 334 334 339 338 338 338 337 334 333 334 334 334 332 332 332 331 329 326 326 327 325 323 320 320 323 321 318 320 319 318 317 314 311 307 303 299 298 297 297 299 301 300 299 300 299 297
261 267 274 284 279 274 271 267 272 301 315 315 326 334 340 340 348 342 329 321 326 328 333 326 321 324 322 322 319 318 323 331 333 334 334 334 333 331 333 334 336 339 336 339 336 335 332 333 332 331 331 330 328 328 328 326 324 323 323 321 318 317 317 319 318 315 317 317 315 315 313 310 309 307 303 300 298 298 297 297 299 301 302 300 298
254 263 267 270 275 277 274 271 270 288 299 300 312 327 333 329 337 340 325 318 314 317 313 322 319 323 319 322 319 319 320 332 332 328 326 328 332 335 338 338 335 337 337 338 335 334 331 331 330 328 328 327 324 324 325 326 322 319 320 318 317 317 316 316 313 313 317 317 312 308 308 309 308 306 304 300 298 298 297 298 301 301 299 297 295
248 257 258 264 271 274 269 267 271 280 288 289 306 320 323 321 329 331 324 318 312 308 307 310 310 311 314 319 316 318 324 330 328 320 320 327 329 327 327 326 329 333 335 335 335 335 331 330 330 329 327 324 323 323 323 325 322 318 315 315 313 313 315 315 312 312 317 320 316 311 310 307 307 306 306 303 301 301 301 302 302 300 301 302 301
263 261 258 262 260 261 266 270 271 278 287 291 297 311 311 310 315 322 323 319 309 309 307 309 306 307 311 311 309 315 324 328 323 319 322 325 323 320 320 321 326 329 329 331 332 332 329 330 329 329 327 325 326 324 321 322 321 318 314 312 312 311 311 313 312 311 315 318 316 314 311 308 307 311 313 309 306 304 303 304 302 302 303 302 301
259 256 256 252 253 252 256 263 264 274 282 285 286 295 310 312 311 317 317 309 306 312 308 307 307 306 303 304 308 313 323 324 320 321 325 325 322 321 322 322 325 328 326 326 323 325 327 328 329 329 327 328 328 325 323 324 320 316 314 310 309 309 308 310 310 310 314 316 314 312 310 313 304 307 311 312 310 304 303 301 301 302 304 304 305
267 261 259 256 256 256 259 262 265 270 277 278 275 287 298 319 316 326 317 308 303 306 308 304 303 301 298 302 307 317 318 318 318 320 322 324 325 322 321 320 321 325 325 321 318 321 324 325 327 328 329 328 328 326 325 322 320 319 313 309 308 308 308 309 310 310 310 312 310 310 309 311 307 301 298 298 298 299 300 301 305 309 309 308 307
264 253 250 256 262 262 262 263 266 268 270 270 268 273 287 311 314 323 323 312 301 307 311 304 298 298 300 307 312 314 312 313 313 318 321 321 320 320 319 317 316 318 319 316 316 318 320 322 325 328 329 329 328 326 325 323 319 316 313 308 307 306 308 309 309 310 310 308 307 307 308 304 304 302 300 298 299 302 303 304 306 309 313 313 311
258 261 258 261 267 263 259 263 267 267 268 274 272 269 279 298 306 308 302 310 306 307 306 303 296 302 306 307 306 307 307 308 312 315 315 315 316 317 316 316 318 314 313 313 311 314 318 321 324 328 330 329 328 324 324 321 317 315 315 312 309 309 308 310 309 311 312 309 304 306 303 299 300 302 298 297 296 296 298 303 305 310 312 311 310
246 264 261 257 251 248 250 258 262 267 276 279 278 276 268 268 276 281 296 302 296 298 306 305 297 302 301 299 299 300 301 303 304 307 309 309 311 314 314 311 309 307 309 309 310 313 316 320 322 324 326 325 326 322 324 320 317 319 317 312 307 310 309 308 310 312 312 309 307 302 299 298 297 297 296 297 296 297 299 301 303 304 305 305 307
nan 247 262 265 265 258 254 255 260 267 264 265 268 270 264 260 264 279 286 289 288 291 301 299 295 295 294 293 296 296 299 300 302 304 306 306 310 310 312 309 308 308 308 308 309 312 314 317 319 320 322 322 320 322 324 323 320 319 318 313 309 310 306 305 308 311 312 308 305 302 300 298 297 296 295 296 298 303 304 304 305 306 303 301 302
237 238 247 265 272 274 274 263 256 256 261 266 270 274 273 272 277 274 278 280 278 284 293 292 291 293 293 295 298 297 298 299 301 303 306 308 309 309 311 308 305 304 304 304 306 311 314 315 316 317 320 320 316 321 323 322 319 320 323 311 310 313 311 307 307 307 306 299 301 299 298 296 294 290 294 303 306 306 306 306 307 308 307 304 301
nan 243 250 266 269 272 275 264 258 259 262 267 268 272 270 266 268 269 271 276 276 283 289 290 290 292 295 297 297 297 296 298 300 302 305 306 308 309 309 306 305 304 304 304 306 309 307 311 314 316 317 316 312 319 322 325 322 324 318 313 316 315 315 314 313 309 307 303 304 301 297 293 288 285 293 308 311 307 306 307 308 310 307 302 297
nan nan 250 266 269 270 270 273 267 260 261 261 266 270 268 263 261 262 268 273 274 281 284 286 290 293 293 294 294 294 294 296 299 304 304 305 306 305 304 301 302 304 305 305 304 305 305 307 312 313 314 313 314 319 325 326 324 326 321 316 315 317 319 320 318 314 311 306 305 307 297 288 286 288 298 310 314 310 308 309 309 310 306 301 296
nan nan 242 264 269 270 266 266 263 260 257 259 264 270 270 266 262 267 270 271 273 277 281 285 288 289 289 289 291 291 292 295 297 300 301 302 304 301 300 297 299 298 297 296 302 306 308 305 311 312 312 314 315 317 325 325 327 325 320 315 316 318 321 322 318 315 312 303 297 300 301 285 277 282 301 311 311 309 307 308 308 305 302 298 295
nan nan nan 248 263 262 261 261 258 253 255 257 264 266 268 268 267 268 267 269 274 276 278 281 281 282 284 286 288 289 292 295 295 297 297 295 295 297 297 295 292 292 292 296 303 308 308 307 306 308 310 313 315 309 321 325 325 323 323 317 316 318 320 319 318 312 300 295 296 295 288 283 289 304 308 307 310 311 307 305 304 303 301 299 nan
nan nan nan 248 259 261 257 256 250 249 250 255 260 262 264 266 267 267 268 270 271 273 276 276 275 280 282 283 284 287 291 292 294 295 296 295 296 296 294 294 295 296 294 296 305 307 305 303 306 307 310 313 315 313 319 322 321 322 323 320 315 318 316 313 305 302 306 300 296 296 293 nan nan 308 305 307 308 307 301 300 300 300 297 nan nan
231 240 248 250 255 255 255 252 245 245 246 250 254 258 261 264 266 268 268 267 268 270 271 273 276 279 284 287 288 288 290 291 293 295 296 294 294 295 295 296 298 296 295 297 298 298 298 301 301 303 301 303 310 313 314 318 319 319 321 322 315 307 302 301 300 304 302 297 295 nan nan 310 312 nan nan 305 304 303 301 301 nan nan nan nan nan
234 235 234 233 238 250 257 252 247 243 240 244 250 255 259 261 262 264 266 266 268 269 271 274 276 280 282 283 284 287 287 289 292 294 294 294 293 293 292 294 295 294 294 295 298 298 299 298 301 305 306 307 310 309 312 312 316 318 318 318 302 302 305 306 307 308 307 305 nan nan 306 305 307 305 304 303 302 301 301 nan nan nan nan nan nan
223 234 235 235 234 241 246 241 237 230 231 238 245 252 255 258 259 260 263 267 270 271 272 274 275 276 278 278 280 283 285 288 291 291 291 291 291 292 293 292 294 296 295 295 297 297 298 305 308 307 307 309 307 304 310 313 313 316 315 315 309 310 312 310 311 313 nan 309 307 304 299 302 302 302 301 302 301 303 nan nan nan nan nan nan nan
227 224 222 226 231 234 234 229 223 224 226 233 241 248 252 253 253 257 262 266 269 269 268 270 270 271 273 275 277 280 282 284 286 286 285 285 287 290 293 290 291 294 295 296 299 300 303 306 308 308 309 306 305 304 303 307 312 312 314 314 312 313 317 nan nan 313 307 301 295 295 296 298 299 299 299 299 nan nan nan nan nan nan nan nan nan
212 214 219 224 224 222 226 225 222 224 225 230 236 243 248 248 252 257 260 262 264 264 265 267 268 270 273 276 279 280 279 280 281 279 279 280 282 288 291 289 287 291 295 298 300 302 305 306 308 309 308 308 306 304 303 305 308 312 314 316 314 310 nan nan nan nan 292 293 294 295 295 296 297 299 nan nan nan nan nan nan nan nan nan nan nan
228 221 219 220 224 226 226 227 228 227 230 234 239 242 245 248 252 256 257 258 260 262 264 266 269 271 272 274 276 276 277 277 275 274 277 280 282 285 288 288 288 292 295 297 300 303 304 307 309 309 307 307 306 304 305 306 308 308 305 304 nan nan 301 302 300 299 297 296 298 298 299 301 301 nan nan nan nan nan nan nan nan nan nan nan nan
223 222 212 218 220 226 227 226 224 228 233 239 241 243 246 249 252 254 255 255 258 261 264 266 269 269 271 273 274 275 277 276 273 276 280 284 284 284 287 289 291 294 296 297 300 304 306 307 309 308 307 307 305 305 308 309 309 307 nan nan nan nan nan 306 303 301 nan nan nan nan nan nan nan nan nan nan nan nan nan nan nan nan nan nan nan
221 223 225 219 221 225 228 232 229 229 233 237 242 246 248 249 249 252 253 256 258 260 263 267 268 270 271 271 274 276 275 272 273 273 273 274 276 279 282 279 278 282 287 295 301 302 305 309 309 307 307 308 309 310 311 310 308 308 nan nan nan nan nan 305 nan nan nan nan nan nan nan nan nan nan nan nan nan nan nan nan nan nan nan nan nan
216 221 226 224 219 223 229 230 229 231 233 236 239 242 245 248 250 251 253 256 258 261 265 267 270 272 274 275 276 277 275 276 275 276 279 278 275 271 272 282 286 284 286 287 289 300 304 306 306 302 303 309 311 308 305 308 306 306 304 nan nan nan nan nan nan nan nan nan nan nan nan nan nan nan 311 nan nan nan nan nan nan nan nan nan nan
219 222 223 224 224 226 228 230 231 233 235 237 239 242 243 246 247 250 254 256 258 260 263 267 270 272 272 273 275 275 275 275 277 280 282 284 284 278 273 274 281 286 285 282 285 290 292 296 301 301 296 292 297 299 302 303 nan nan nan nan nan nan nan nan nan nan nan nan nan 308 310 310 309 nan nan nan nan nan nan nan nan nan nan nan nan